Wind_Speed
24 24 23 23 23 23 23 23 23 22 22 22 21 21 20 20 20 19 19 19 19 19 20 20 21 22 23 23 23 23 23 24 24 24 24 24 23 23 24 25 25 25 25
23 23 22 22 22 22 22 22 22 22 21 21 21 20 20 19 19 19 18 18 18 19 20 20 21 21 22 22 23 23 22 23 23 23 24 24 23 24 24 24 24 24 25
22 22 20 21 21 21 21 21 21 21 21 21 20 20 20 19 19 18 18 18 18 19 20 20 20 21 21 21 21 21 21 21 22 22 23 23 23 23 24 24 24 23 23
21 20 19 20 20 20 20 21 21 20 20 20 19 19 19 18 18 18 18 19 19 19 18 17 18 18 18 18 19 19 20 20 21 21 21 22 23 22 22 23 23 22 22
20 19 19 19 19 19 19 19 19 18 18 18 18 17 17 17 17 17 17 18 17 17 17 17 17 16 16 17 17 17 17 18 18 19 19 20 20 20 21 21 22 22 22
19 18 18 18 17 17 17 17 16 15 16 16 16 16 16 16 16 16 16 16 16 16 16 15 16 15 15 15 15 15 15 16 16 17 17 17 17 18 19 20 21 21 21
17 17 16 16 15 15 15 15 14 14 15 15 15 15 15 15 15 15 15 15 15 15 15 14 14 14 14 13 13 13 14 15 15 15 15 16 16 17 18 19 20 20 20
15 16 16 15 14 14 14 15 14 14 15 15 16 15 15 15 15 15 14 14 14 14 13 12 12 12 12 12 12 12 13 13 13 14 15 16 16 16 17 18 19 19 20
14 14 14 13 13 14 14 14 14 14 14 15 15 15 15 15 15 15 14 13 13 13 12 12 12 12 12 12 11 11 12 12 12 13 13 14 15 16 17 17 18 18 18
13 14 13 13 13 13 14 14 13 14 14 15 15 15 15 15 15 15 15 14 14 13 13 13 12 12 12 12 12 12 11 12 12 13 14 14 15 15 15 16 17 17 17
12 12 12 12 12 13 13 13 13 13 14 14 14 15 15 16 16 16 15 15 14 13 13 13 12 12 12 12 11 11 11 12 12 13 14 14 14 15 16 16 17 17 17
10 10 11 11 12 12 12 13 13 13 13 13 14 15 15 16 16 16 15 15 14 13 13 13 13 13 13 12 11 11 10 11 11 13 13 13 14 14 15 16 17 17 18
9 10 10 11 11 12 12 13 13 13 13 13 14 15 15 16 16 16 15 14 14 14 14 13 13 13 13 12 11 11 11 12 12 12 13 13 13 14 15 15 16 17 17
9 9 9 10 11 11 12 13 13 13 14 14 15 15 16 17 17 16 15 15 14 14 14 14 14 14 13 13 13 13 13 13 13 14 14 15 15 15 16 17 17 18 18
8 8 8 10 11 11 12 13 14 14 15 15 15 16 16 17 17 16 15 15 14 14 14 15 14 14 13 14 14 14 14 14 14 14 15 15 16 17 17 18 19 20 21
7 8 8 9 10 11 12 13 14 15 15 16 16 16 17 17 17 17 16 15 15 15 15 15 15 15 15 15 15 15 15 15 15 15 15 16 17 17 18 19 20 21 22
7 7 8 9 10 11 12 13 15 16 16 16 17 18 18 18 18 18 17 17 16 16 16 16 16 16 16 16 16 16 16 17 16 17 18 18 19 19 20 21 21 22 23
6 7 8 9 10 12 13 14 15 16 17 17 18 19 19 18 18 18 18 17 18 18 18 18 18 18 18 17 17 18 18 18 19 19 20 20 21 22 22 22 23 24 25
6 7 9 10 11 12 13 14 15 16 17 18 19 19 19 19 19 19 19 19 19 19 19 19 20 20 19 19 19 19 19 19 19 20 21 21 22 23 24 25 26 27 27
7 8 9 10 11 12 14 15 16 17 17 19 19 20 20 20 20 20 20 21 21 21 21 22 22 21 21 21 22 21 21 21 21 22 22 22 23 24 24 26 27 27 28
8 8 9 10 11 13 14 15 16 17 18 19 20 21 21 21 21 21 22 23 23 23 24 24 24 24 24 24 24 23 23 23 24 24 23 24 25 26 26 27 28 29 29
8 9 9 10 12 13 15 16 17 18 19 20 21 21 22 22 23 23 23 24 25 26 26 26 26 26 26 26 26 26 26 25 25 26 26 26 27 27 27 28 29 30 31
8 9 10 11 12 14 16 17 18 19 20 21 22 22 23 24 25 25 26 26 27 28 28 27 27 28 28 27 27 27 27 27 27 28 28 28 28 29 29 30 30 32 32
9 10 11 12 14 16 17 18 20 21 22 23 24 24 25 26 27 28 28 28 29 29 29 29 30 30 29 29 29 28 28 27 28 28 29 29 29 30 30 31 31 32 32
10 11 12 13 15 17 18 19 21 22 23 24 25 26 27 28 29 30 30 30 30 30 30 30 30 30 30 29 29 29 29 29 29 29 29 30 30 30 31 31 32 32 33
11 12 13 15 16 17 19 20 22 24 25 26 27 27 28 29 30 31 31 31 31 31 31 31 31 31 30 29 29 29 29 29 29 29 29 30 30 30 31 31 31 32 33
Wind_Direction
307 306 305 307 309 310 310 310 308 308 308 308 308 308 305 302 300 297 293 290 289 287 284 282 280 278 274 271 270 269 267 264 262 259 258 259 260 258 257 254 251 251 251
309 308 307 309 310 311 311 310 309 309 309 309 309 308 306 304 302 301 297 293 292 289 288 284 281 278 274 271 269 267 266 263 261 259 258 258 260 260 260 256 254 252 250
310 309 309 311 312 311 311 311 310 310 311 311 310 309 308 306 304 301 300 299 297 295 292 287 281 279 276 272 269 266 265 264 262 259 257 257 258 258 256 254 251 249 249
310 309 310 313 315 314 313 313 312 312 312 313 312 311 312 311 309 306 305 304 302 301 297 293 289 284 279 276 272 269 267 264 262 258 256 255 256 255 255 251 248 247 248
311 311 312 315 317 317 318 319 317 317 316 317 317 316 316 315 314 311 310 309 306 304 301 298 294 289 283 278 274 270 268 265 261 258 257 257 255 252 250 249 249 249 249
312 313 313 315 318 320 322 325 325 325 325 326 327 326 323 321 319 317 316 314 312 308 305 302 298 295 289 282 277 272 269 265 261 259 259 256 253 251 251 251 251 252 251
313 317 318 318 319 320 322 328 330 330 332 333 333 331 330 329 327 325 322 319 316 314 310 304 299 298 295 286 279 273 269 266 262 259 254 253 253 252 251 251 252 254 254
316 320 321 318 316 319 320 325 328 331 333 333 334 334 334 334 332 328 325 323 321 318 315 314 309 304 299 294 286 278 274 268 261 255 252 253 253 252 251 252 253 255 254
320 324 326 324 320 320 322 324 326 328 331 335 338 337 337 337 337 334 331 328 325 320 318 316 313 307 301 297 290 282 277 271 263 257 255 253 249 250 250 250 250 253 252
322 328 328 329 326 325 327 329 328 330 332 334 336 338 341 341 338 335 333 330 327 323 318 317 317 315 310 303 295 289 279 272 266 259 256 256 253 252 253 254 252 251 251
328 331 335 336 335 335 337 338 336 334 334 335 337 338 339 340 340 337 333 330 328 326 322 318 317 317 315 309 302 294 285 280 273 266 260 255 256 256 254 255 253 249 248
340 338 341 344 345 346 346 348 345 341 340 340 341 342 341 340 338 337 334 333 331 328 325 322 318 318 317 312 308 300 289 282 277 269 264 258 258 257 256 255 253 252 252
346 343 346 354 357 357 356 355 355 352 348 347 346 344 343 342 341 340 339 338 335 334 332 327 322 319 319 315 308 303 296 287 280 274 269 266 264 260 258 260 259 259 260
355 357 -0 1 359 359 1 1 358 356 353 351 348 345 344 344 345 345 344 341 339 337 336 333 328 322 318 315 311 307 301 292 285 280 276 273 270 266 263 262 263 264 264
358 1 1 360 1 0 359 359 358 355 352 352 351 351 349 348 347 346 346 343 341 340 338 336 334 330 326 319 311 307 304 300 293 287 281 279 275 272 270 269 267 267 267
1 6 5 2 3 2 359 358 358 358 355 354 353 351 350 350 350 349 347 343 340 339 337 334 333 330 326 321 316 310 305 300 294 290 287 282 279 279 277 275 274 271 270
358 2 4 3 4 2 360 358 358 357 357 354 353 352 351 351 351 350 349 346 342 339 336 333 330 327 323 320 315 309 305 301 296 292 289 286 284 282 280 278 276 275 274
356 360 1 2 1 358 356 356 356 355 355 354 353 352 352 351 349 347 346 343 340 335 333 331 329 326 323 320 318 313 308 303 298 293 290 288 286 284 281 279 278 277 276
355 357 357 356 356 354 353 354 355 354 354 353 351 350 349 348 346 344 343 340 337 334 331 329 326 324 322 320 318 315 311 305 300 297 295 293 290 287 284 282 281 280 279
354 350 352 352 353 354 353 353 352 352 351 350 350 349 348 345 343 341 339 337 335 333 331 328 324 320 320 317 316 315 312 308 304 299 297 295 294 291 288 286 284 283 281
355 350 351 353 353 352 352 352 351 349 349 348 347 346 345 343 341 340 338 336 334 331 329 328 326 323 319 317 315 313 310 308 304 301 298 296 295 294 291 289 287 285 284
355 354 353 352 351 348 348 348 349 348 347 346 344 343 342 341 340 339 338 336 333 330 329 327 325 322 320 317 314 312 310 308 304 300 299 298 297 296 293 292 290 288 287
0 358 355 354 351 349 349 348 347 346 344 343 342 342 342 341 340 338 336 333 332 330 329 327 324 322 320 318 316 313 310 308 305 303 301 300 298 296 294 294 292 289 288
0 358 353 349 348 348 348 347 345 344 344 343 342 341 340 339 339 337 335 332 331 330 329 328 326 324 321 318 316 315 313 310 307 305 303 300 299 297 296 295 293 291 290
359 355 351 348 347 348 347 345 344 345 344 343 341 339 339 338 337 336 335 334 332 331 330 329 327 326 324 321 319 317 315 313 311 308 305 303 301 298 297 296 294 292 291
356 353 351 348 347 346 345 344 344 344 343 342 341 339 338 337 337 336 336 335 334 333 332 331 329 328 327 325 323 320 318 316 315 313 310 307 304 303 302 300 298 295 294
Height
5792 5788 5785 5781 5777 5773 5769 5765 5761 5758 5754 5750 5746 5743 5739 5736 5733 5731 5729 5727 5725 5724 5723 5722 5721 5720 5719 5719 5719 5718 5718 5718 5719 5719 5720 5721 5721 5722 5722 5723 5723 5725 5726
5787 5783 5779 5776 5772 5768 5764 5760 5756 5752 5749 5745 5741 5738 5735 5732 5729 5726 5724 5722 5720 5718 5717 5715 5714 5713 5712 5712 5712 5711 5711 5711 5712 5712 5713 5714 5714 5715 5715 5715 5716 5717 5718
5782 5778 5774 5770 5766 5763 5759 5755 5751 5747 5744 5740 5737 5733 5730 5727 5724 5722 5719 5717 5715 5713 5711 5709 5708 5707 5706 5705 5705 5705 5705 5704 5705 5705 5706 5707 5707 5708 5708 5709 5709 5710 5711
5777 5773 5769 5766 5762 5758 5754 5751 5747 5743 5739 5736 5733 5729 5726 5723 5720 5718 5715 5713 5710 5708 5706 5704 5702 5701 5700 5699 5699 5698 5698 5698 5698 5699 5699 5700 5701 5701 5701 5702 5703 5704 5705
5772 5768 5765 5761 5758 5754 5750 5747 5743 5739 5735 5732 5729 5726 5723 5720 5717 5714 5711 5709 5706 5704 5701 5699 5697 5696 5694 5693 5693 5692 5692 5692 5692 5692 5693 5693 5694 5695 5696 5696 5697 5698 5699
5767 5764 5761 5757 5754 5750 5747 5743 5739 5736 5732 5729 5726 5723 5719 5716 5713 5711 5708 5705 5703 5700 5698 5695 5693 5691 5690 5689 5688 5687 5687 5687 5687 5687 5687 5688 5689 5690 5690 5691 5691 5692 5693
5763 5759 5756 5753 5750 5747 5744 5740 5737 5733 5730 5727 5723 5720 5717 5713 5710 5708 5705 5702 5699 5696 5694 5692 5689 5688 5686 5684 5683 5683 5682 5682 5682 5682 5683 5683 5684 5685 5686 5686 5686 5687 5687
5759 5756 5753 5750 5747 5744 5741 5738 5735 5731 5728 5725 5721 5718 5714 5711 5708 5705 5702 5699 5696 5693 5691 5688 5686 5684 5682 5681 5680 5679 5678 5678 5677 5677 5678 5679 5679 5680 5680 5681 5681 5682 5682
5755 5752 5749 5746 5744 5741 5738 5735 5732 5729 5726 5722 5719 5716 5713 5709 5706 5703 5700 5697 5694 5691 5688 5686 5683 5681 5679 5678 5676 5675 5674 5674 5673 5673 5674 5674 5674 5675 5676 5676 5677 5677 5677
5752 5749 5745 5743 5741 5738 5735 5733 5730 5727 5724 5721 5718 5715 5711 5708 5704 5701 5697 5694 5691 5689 5686 5683 5681 5679 5676 5675 5673 5672 5671 5670 5670 5670 5670 5670 5670 5671 5671 5672 5672 5672 5672
5748 5746 5744 5741 5739 5736 5733 5730 5728 5725 5722 5719 5716 5712 5709 5706 5702 5699 5695 5692 5689 5686 5684 5681 5679 5676 5674 5672 5670 5669 5668 5667 5666 5666 5666 5666 5666 5666 5667 5667 5667 5667 5668
5746 5745 5742 5740 5737 5735 5732 5729 5726 5723 5720 5717 5714 5711 5708 5704 5701 5697 5693 5690 5687 5685 5682 5679 5677 5674 5672 5670 5667 5666 5665 5664 5663 5662 5662 5662 5662 5662 5662 5662 5663 5663 5663
5745 5743 5741 5738 5736 5734 5731 5728 5725 5722 5719 5716 5713 5710 5706 5703 5699 5695 5692 5689 5686 5683 5680 5677 5674 5672 5669 5667 5665 5664 5662 5661 5660 5659 5658 5658 5658 5657 5658 5658 5658 5658 5658
5744 5742 5740 5738 5736 5733 5731 5728 5725 5722 5719 5716 5712 5709 5705 5701 5698 5694 5691 5687 5684 5681 5678 5675 5672 5669 5667 5665 5663 5661 5659 5657 5656 5655 5654 5654 5653 5653 5653 5653 5653 5653 5653
5744 5742 5740 5738 5735 5733 5730 5728 5725 5722 5718 5715 5712 5708 5704 5700 5697 5693 5689 5686 5683 5680 5677 5673 5670 5667 5665 5662 5660 5658 5656 5654 5653 5651 5650 5650 5649 5648 5648 5647 5647 5647 5647
5744 5742 5740 5737 5735 5733 5730 5727 5724 5721 5718 5714 5711 5707 5703 5699 5695 5692 5688 5685 5682 5678 5675 5672 5669 5665 5662 5660 5657 5655 5653 5651 5649 5648 5646 5645 5644 5643 5643 5642 5641 5640 5640
5743 5741 5739 5737 5735 5732 5730 5727 5724 5721 5717 5714 5710 5706 5702 5698 5694 5690 5687 5683 5680 5677 5673 5670 5666 5663 5660 5657 5654 5651 5649 5647 5645 5643 5642 5640 5639 5638 5637 5635 5634 5633 5633
5742 5741 5739 5736 5734 5732 5729 5726 5723 5720 5717 5713 5709 5705 5701 5697 5693 5689 5685 5682 5678 5674 5671 5667 5664 5660 5657 5653 5650 5647 5645 5642 5640 5638 5636 5634 5633 5631 5630 5628 5627 5626 5625
5742 5740 5738 5736 5734 5731 5729 5726 5723 5719 5716 5712 5708 5704 5700 5696 5692 5688 5684 5680 5676 5672 5668 5664 5661 5657 5653 5650 5646 5643 5640 5637 5635 5632 5630 5628 5626 5624 5622 5621 5619 5617 5616
5741 5739 5737 5735 5733 5730 5728 5725 5722 5718 5715 5711 5707 5703 5699 5695 5691 5686 5682 5678 5674 5670 5665 5661 5657 5653 5649 5645 5642 5638 5635 5632 5629 5626 5623 5621 5619 5616 5614 5612 5610 5608 5607
5740 5738 5737 5735 5732 5730 5727 5724 5721 5717 5713 5710 5706 5702 5697 5693 5689 5684 5680 5675 5671 5666 5662 5657 5652 5648 5644 5640 5636 5632 5629 5626 5622 5619 5616 5613 5611 5608 5606 5603 5601 5599 5597
5739 5738 5736 5734 5731 5729 5726 5723 5719 5716 5712 5708 5704 5699 5695 5691 5686 5682 5677 5672 5667 5662 5657 5652 5648 5643 5638 5634 5630 5626 5622 5618 5615 5612 5608 5605 5602 5600 5597 5594 5591 5589 5587
5739 5737 5735 5733 5731 5728 5725 5722 5718 5714 5710 5706 5702 5697 5693 5688 5683 5678 5673 5668 5663 5658 5652 5647 5642 5637 5632 5627 5623 5619 5615 5611 5607 5603 5600 5597 5594 5591 5587 5584 5582 5579 5576
5738 5736 5734 5732 5730 5727 5724 5720 5716 5712 5708 5704 5699 5695 5690 5685 5680 5675 5669 5664 5658 5652 5647 5642 5636 5631 5625 5620 5616 5611 5607 5603 5599 5595 5591 5588 5585 5581 5578 5575 5571 5568 5565
5738 5736 5734 5731 5729 5725 5722 5718 5715 5710 5706 5701 5696 5692 5687 5681 5676 5670 5665 5659 5653 5647 5641 5636 5630 5624 5619 5614 5608 5604 5599 5595 5590 5586 5582 5579 5575 5571 5568 5564 5561 5557 5554
5737 5735 5733 5730 5727 5724 5720 5717 5713 5708 5703 5699 5693 5688 5683 5677 5672 5666 5660 5654 5648 5642 5636 5630 5624 5618 5612 5607 5602 5597 5592 5587 5583 5578 5574 5569 5565 5562 5558 5554 5550 5546 5543